| time (UTC) | temp F | wind direction | speed MPH | gust MPH | rain 1hr in | rain 24hr in | rain mn in | humidity % | barometer mb |
| 20260904151516 | 71 | 349 | 0.0 | 5.0 | 0.00 | 0.00 | 0.00 | 76 | 1014.1 |
| 20260904151030 | 71 | 327 | 0.0 | 0.0 | 0.00 | 0.00 | 0.00 | 78 | 1014.2 |
| 20260904150548 | 71 | 79 | 0.0 | 0.0 | 0.00 | 0.00 | 0.00 | 79 | 1014.2 |
| 20260904150114 | 70 | 276 | 0.0 | 3.0 | 0.00 | 0.00 | 0.00 | 77 | 1014.3 |
| 20260904145636 | 70 | 300 | 0.0 | 6.0 | 0.00 | 0.00 | 0.00 | 78 | 1014.3 |
| 20260904145021 | 70 | 303 | 0.0 | 0.0 | 0.00 | 0.00 | 0.00 | 81 | 1014.3 |
| 20260904144549 | 69 | 318 | 0.0 | 7.0 | 0.00 | 0.00 | 0.00 | 80 | 1014.1 |
| 20260904144110 | 69 | 300 | 0.0 | 7.0 | 0.00 | 0.00 | 0.00 | 80 | 1014.2 |
| 20260904143632 | 69 | 269 | 0.0 | 1.0 | 0.00 | 0.00 | 0.00 | 81 | 1014.0 |
| 20260904143033 | 69 | 292 | 0.0 | 5.0 | 0.00 | 0.00 | 0.00 | 83 | 1014.3 |
| 20260904142550 | 69 | 296 | 0.0 | 5.0 | 0.00 | 0.00 | 0.00 | 85 | 1014.3 |
| 20260904142109 | 69 | 314 | 0.0 | 3.0 | 0.00 | 0.00 | 0.00 | 84 | 1014.2 |
| 20260904141633 | 69 | 207 | 0.0 | 0.0 | 0.00 | 0.00 | 0.00 | 86 | 1014.2 |
| 20260904141012 | 69 | 324 | 0.0 | 1.0 | 0.00 | 0.00 | 0.00 | 87 | 1014.4 |
| 20260904140530 | 68 | 301 | 0.0 | 1.0 | 0.00 | 0.00 | 0.00 | 87 | 1014.3 |
| 20260904140044 | 68 | 271 | 0.0 | 4.0 | 0.00 | 0.00 | 0.00 | 87 | 1014.3 |
| 20260904135602 | 68 | 292 | 0.0 | 4.0 | 0.00 | 0.00 | 0.00 | 87 | 1014.3 |
| 20260904135113 | 68 | 314 | 0.0 | 1.0 | 0.00 | 0.00 | 0.00 | 88 | 1014.3 |
| 20260904134503 | 68 | 314 | 0.0 | 3.0 | 0.00 | 0.00 | 0.00 | 88 | 1014.5 |
| 20260904134016 | 67 | 354 | 0.0 | 3.0 | 0.00 | 0.00 | 0.00 | 89 | 1014.6 |
| 20260904133536 | 67 | 324 | 0.0 | 2.0 | 0.00 | 0.00 | 0.00 | 90 | 1014.5 |
| 20260904133048 | 67 | 273 | 0.0 | 1.0 | 0.00 | 0.00 | 0.00 | 90 | 1014.6 |
| 20260904132603 | 67 | 293 | 0.0 | 0.0 | 0.00 | 0.00 | 0.00 | 90 | 1014.5 |
| 20260904132120 | 67 | 332 | 0.0 | 0.0 | 0.00 | 0.00 | 0.00 | 91 | 1014.2 |
| 20260904131505 | 67 | 257 | 0.0 | 1.0 | 0.00 | 0.00 | 0.00 | 91 | 1014.2 |
| 20260904131023 | 66 | 311 | 0.0 | 0.0 | 0.00 | 0.00 | 0.00 | 92 | 1014.1 |
| 20260904130536 | 66 | 303 | 0.0 | 0.0 | 0.00 | 0.00 | 0.00 | 92 | 1014.1 |
| 20260904130050 | 66 | 300 | 0.0 | 0.0 | 0.00 | 0.00 | 0.00 | 92 | 1014.1 |
| 20260904125613 | 66 | 264 | 0.0 | 0.0 | 0.00 | 0.00 | 0.00 | 92 | 1014.1 |
| 20260904125130 | 65 | 283 | 0.0 | 0.0 | 0.00 | 0.00 | 0.00 | 92 | 1014.2 |
| 20260904124526 | 65 | 274 | 0.0 | 0.0 | 0.00 | 0.00 | 0.00 | 92 | 1014.4 |
| 20260904124050 | 65 | 306 | 0.0 | 0.0 | 0.00 | 0.00 | 0.00 | 92 | 1014.4 |
| 20260904123609 | 65 | 307 | 0.0 | 0.0 | 0.00 | 0.00 | 0.00 | 92 | 1014.4 |
| 20260904123134 | 65 | 259 | 0.0 | 0.0 | 0.00 | 0.00 | 0.00 | 92 | 1014.5 |
| 20260904122508 | 65 | 275 | 0.0 | 0.0 | 0.00 | 0.00 | 0.00 | 92 | 1014.5 |
| 20260904122024 | 64 | 269 | 0.0 | 0.0 | 0.00 | 0.00 | 0.00 | 92 | 1014.5 |
| 20260904121539 | 64 | 286 | 0.0 | 0.0 | 0.00 | 0.00 | 0.00 | 92 | 1014.4 |
| 20260904121058 | 64 | 272 | 0.0 | 0.0 | 0.00 | 0.00 | 0.00 | 92 | 1014.4 |
| 20260904120618 | 64 | 271 | 0.0 | 0.0 | 0.00 | 0.00 | 0.00 | 92 | 1014.3 |
| 20260904120145 | 64 | 248 | 0.0 | 0.0 | 0.00 | 0.00 | 0.00 | 92 | 1014.3 |
| 20260904115508 | 64 | 292 | 0.0 | 0.0 | 0.00 | 0.00 | 0.00 | 92 | 1014.3 |
| 20260904115030 | 64 | 150 | 0.0 | 0.0 | 0.00 | 0.00 | 0.00 | 92 | 1014.4 |
| 20260904114550 | 64 | 299 | 0.0 | 0.0 | 0.00 | 0.00 | 0.00 | 92 | 1014.3 |
| 20260904114117 | 64 | 294 | 0.0 | 0.0 | 0.00 | 0.00 | 0.00 | 92 | 1014.3 |
| 20260904113502 | 64 | 349 | 0.0 | 0.0 | 0.00 | 0.00 | 0.00 | 92 | 1014.2 |
| 20260904113047 | 64 | 275 | 0.0 | 0.0 | 0.00 | 0.00 | 0.00 | 92 | 1014.2 |
| 20260904112605 | 64 | 241 | 0.0 | 0.0 | 0.00 | 0.00 | 0.00 | 92 | 1014.2 |
| 20260904112119 | 64 | 269 | 0.0 | 0.0 | 0.00 | 0.00 | 0.00 | 92 | 1014.2 |
| 20260904111643 | 64 | 271 | 0.0 | 0.0 | 0.00 | 0.00 | 0.00 | 92 | 1014.1 |
| 20260904111014 | 64 | 255 | 0.0 | 0.0 | 0.00 | 0.00 | 0.00 | 92 | 1014.1 |
| 20260904110532 | 64 | 249 | 0.0 | 0.0 | 0.00 | 0.00 | 0.00 | 92 | 1014.0 |
| 20260904110050 | 63 | 268 | 0.0 | 0.0 | 0.00 | 0.00 | 0.00 | 92 | 1013.9 |
| 20260904105608 | 63 | 292 | 0.0 | 1.0 | 0.00 | 0.00 | 0.00 | 92 | 1013.8 |
| 20260904105126 | 63 | 300 | 0.0 | 1.0 | 0.00 | 0.00 | 0.00 | 91 | 1013.8 |
| 20260904104646 | 63 | 283 | 0.0 | 0.0 | 0.00 | 0.00 | 0.00 | 91 | 1013.7 |
| 20260904104019 | 64 | 286 | 0.0 | 0.0 | 0.00 | 0.00 | 0.00 | 91 | 1013.9 |
| 20260904103539 | 64 | 313 | 0.0 | 0.0 | 0.00 | 0.00 | 0.00 | 91 | 1013.9 |
| 20260904103048 | 64 | 299 | 0.0 | 0.0 | 0.00 | 0.00 | 0.00 | 91 | 1013.9 |
| 20260904102606 | 64 | 277 | 0.0 | 0.0 | 0.00 | 0.00 | 0.00 | 91 | 1013.7 |
| 20260904102127 | 64 | 266 | 0.0 | 0.0 | 0.00 | 0.00 | 0.00 | 91 | 1013.6 |
| 20260904101644 | 64 | 290 | 0.0 | 0.0 | 0.00 | 0.00 | 0.00 | 91 | 1013.5 |
| 20260904101004 | 64 | 287 | 0.0 | 0.0 | 0.00 | 0.00 | 0.00 | 91 | 1013.4 |
| 20260904100530 | 64 | 273 | 0.0 | 0.0 | 0.00 | 0.00 | 0.00 | 91 | 1013.3 |
| 20260904100045 | 64 | 276 | 0.0 | 0.0 | 0.00 | 0.00 | 0.00 | 91 | 1013.4 |
| 20260904095602 | 64 | 290 | 0.0 | 0.0 | 0.00 | 0.00 | 0.00 | 91 | 1013.3 |
| 20260904095121 | 64 | 300 | 0.0 | 0.0 | 0.00 | 0.00 | 0.00 | 91 | 1013.2 |
| 20260904094639 | 64 | 259 | 0.0 | 0.0 | 0.00 | 0.00 | 0.00 | 91 | 1013.2 |
| 20260904094018 | 64 | 251 | 0.0 | 0.0 | 0.00 | 0.00 | 0.00 | 91 | 1013.2 |
| 20260904093542 | 64 | 249 | 0.0 | 0.0 | 0.00 | 0.00 | 0.00 | 91 | 1013.2 |
| 20260904093114 | 64 | 258 | 0.0 | 0.0 | 0.00 | 0.00 | 0.00 | 91 | 1013.1 |
| 20260904092632 | 65 | 238 | 0.0 | 0.0 | 0.00 | 0.00 | 0.00 | 91 | 1013.2 |
| 20260904092018 | 65 | 233 | 0.0 | 0.0 | 0.00 | 0.00 | 0.00 | 91 | 1013.1 |
| 20260904091556 | 65 | 219 | 0.0 | 0.0 | 0.00 | 0.00 | 0.00 | 91 | 1013.1 |
| 20260904091116 | 65 | 238 | 0.0 | 0.0 | 0.00 | 0.00 | 0.00 | 91 | 1013.0 |
| 20260904090503 | 65 | 258 | 0.0 | 0.0 | 0.00 | 0.00 | 0.00 | 91 | 1013.0 |
| 20260904090158 | 65 | 249 | 0.0 | 0.0 | 0.00 | 0.00 | 0.00 | 91 | 1013.0 |
| 20260904085513 | 65 | 294 | 0.0 | 0.0 | 0.00 | 0.00 | 0.00 | 91 | 1013.0 |
| 20260904085031 | 65 | 290 | 0.0 | 0.0 | 0.00 | 0.00 | 0.00 | 91 | 1013.0 |
| 20260904084602 | 65 | 299 | 0.0 | 0.0 | 0.00 | 0.00 | 0.00 | 91 | 1012.9 |
| 20260904084126 | 65 | 254 | 0.0 | 0.0 | 0.00 | 0.00 | 0.00 | 91 | 1012.8 |
| 20260904083503 | 65 | 299 | 0.0 | 0.0 | 0.00 | 0.00 | 0.00 | 91 | 1012.8 |
| 20260904083050 | 65 | 289 | 0.0 | 0.0 | 0.00 | 0.00 | 0.00 | 91 | 1012.8 |
| 20260904082610 | 65 | 283 | 0.0 | 0.0 | 0.00 | 0.00 | 0.00 | 91 | 1012.8 |
| 20260904082134 | 65 | 278 | 0.0 | 0.0 | 0.00 | 0.00 | 0.00 | 91 | 1012.6 |
| 20260904081607 | 65 | 278 | 0.0 | 0.0 | 0.00 | 0.00 | 0.00 | 91 | 1012.6 |
| 20260904081104 | 66 | 273 | 0.0 | 0.0 | 0.00 | 0.00 | 0.00 | 91 | 1012.6 |
| 20260904080619 | 66 | 285 | 0.0 | 0.0 | 0.00 | 0.00 | 0.00 | 91 | 1012.5 |
| 20260904080140 | 66 | 293 | 0.0 | 0.0 | 0.00 | 0.00 | 0.00 | 91 | 1012.5 |
| 20260904075506 | 66 | 258 | 0.0 | 0.0 | 0.00 | 0.00 | 0.00 | 91 | 1012.4 |
| 20260904075019 | 66 | 258 | 0.0 | 0.0 | 0.00 | 0.00 | 0.00 | 91 | 1012.5 |
| 20260904074601 | 66 | 292 | 0.0 | 0.0 | 0.00 | 0.00 | 0.00 | 92 | 1012.5 |
| 20260904074106 | 66 | 292 | 0.0 | 0.0 | 0.00 | 0.00 | 0.00 | 92 | 1012.4 |
| 20260904073624 | 66 | 276 | 0.0 | 0.0 | 0.00 | 0.00 | 0.00 | 92 | 1012.4 |
| 20260904073148 | 66 | 282 | 0.0 | 0.0 | 0.00 | 0.00 | 0.00 | 92 | 1012.4 |
| 20260904072514 | 66 | 283 | 0.0 | 0.0 | 0.00 | 0.00 | 0.00 | 92 | 1012.4 |
| 20260904072036 | 66 | 262 | 0.0 | 0.0 | 0.00 | 0.00 | 0.00 | 92 | 1012.3 |
| 20260904071552 | 66 | 257 | 0.0 | 0.0 | 0.00 | 0.00 | 0.00 | 92 | 1012.3 |
| 20260904071106 | 66 | 258 | 0.0 | 0.0 | 0.00 | 0.00 | 0.00 | 92 | 1012.3 |
| 20260904070625 | 66 | 262 | 0.0 | 0.0 | 0.00 | 0.00 | 0.00 | 92 | 1012.2 |
| 20260904070034 | 66 | 323 | 0.0 | 0.0 | 0.00 | 0.00 | 0.00 | 92 | 1012.3 |
| 20260904065549 | 66 | 323 | 0.0 | 0.0 | 0.00 | 0.00 | 0.00 | 92 | 1012.3 |
| 20260904065104 | 66 | 323 | 0.0 | 0.0 | 0.00 | 0.00 | 0.00 | 92 | 1012.3 |
| 20260904064630 | 66 | 323 | 0.0 | 0.0 | 0.00 | 0.00 | 0.00 | 92 | 1012.3 |
| 20260904064017 | 66 | 323 | 0.0 | 0.0 | 0.00 | 0.00 | 0.00 | 92 | 1012.3 |
| 20260904063539 | 66 | 323 | 0.0 | 0.0 | 0.00 | 0.00 | 0.00 | 92 | 1012.3 |
| 20260904063106 | 66 | 323 | 0.0 | 0.0 | 0.00 | 0.00 | 0.00 | 92 | 1012.3 |
| 20260904062622 | 66 | 323 | 0.0 | 0.0 | 0.00 | 0.00 | 0.00 | 92 | 1012.3 |
| 20260904062003 | 65 | 323 | 0.0 | 0.0 | 0.00 | 0.00 | 0.00 | 92 | 1012.3 |
| 20260904061516 | 65 | 323 | 0.0 | 0.0 | 0.00 | 0.00 | 0.00 | 92 | 1012.5 |
| 20260904061032 | 65 | 103 | 0.0 | 0.0 | 0.00 | 0.00 | 0.00 | 92 | 1012.6 |
| 20260904060548 | 65 | 103 | 0.0 | 0.0 | 0.00 | 0.00 | 0.00 | 92 | 1012.7 |
| 20260904060140 | 66 | 103 | 0.0 | 0.0 | 0.00 | 0.00 | 0.00 | 92 | 1012.7 |
| 20260904055507 | 66 | 103 | 0.0 | 0.0 | 0.00 | 0.00 | 0.00 | 92 | 1012.7 |
| 20260904055024 | 66 | 108 | 0.0 | 0.0 | 0.00 | 0.00 | 0.00 | 92 | 1012.7 |
| 20260904054554 | 66 | 107 | 0.0 | 0.0 | 0.00 | 0.00 | 0.00 | 92 | 1012.8 |
| 20260904054113 | 66 | 107 | 0.0 | 0.0 | 0.00 | 0.00 | 0.00 | 92 | 1012.9 |
| 20260904053630 | 66 | 108 | 0.0 | 0.0 | 0.00 | 0.00 | 0.00 | 92 | 1012.9 |
| 20260904053014 | 66 | 107 | 0.0 | 0.0 | 0.00 | 0.00 | 0.00 | 92 | 1013.0 |
| 20260904052533 | 66 | 108 | 0.0 | 0.0 | 0.00 | 0.00 | 0.00 | 92 | 1013.0 |
| 20260904052052 | 66 | 108 | 0.0 | 0.0 | 0.00 | 0.00 | 0.00 | 92 | 1013.0 |
| 20260904051611 | 66 | 107 | 0.0 | 0.0 | 0.00 | 0.00 | 0.00 | 92 | 1013.1 |
| 20260904051003 | 66 | 107 | 0.0 | 0.0 | 0.00 | 0.00 | 0.00 | 92 | 1013.1 |
| 20260904050524 | 66 | 142 | 0.0 | 0.0 | 0.00 | 0.00 | 0.00 | 92 | 1013.1 |
| 20260904050047 | 66 | 142 | 0.0 | 0.0 | 0.00 | 0.00 | 0.00 | 92 | 1013.2 |
| 20260904045601 | 66 | 141 | 0.0 | 0.0 | 0.00 | 0.00 | 0.00 | 92 | 1013.2 |
| 20260904045118 | 66 | 115 | 0.0 | 0.0 | 0.00 | 0.00 | 0.00 | 92 | 1013.2 |
| 20260904044534 | 66 | 150 | 0.0 | 0.0 | 0.00 | 0.00 | 0.00 | 92 | 1013.2 |
| 20260904044056 | 66 | 137 | 0.0 | 0.0 | 0.00 | 0.00 | 0.00 | 92 | 1013.1 |
| 20260904043617 | 66 | 128 | 0.0 | 0.0 | 0.00 | 0.00 | 0.00 | 91 | 1013.0 |
| 20260904043138 | 66 | 145 | 0.0 | 0.0 | 0.00 | 0.00 | 0.00 | 91 | 1013.1 |
| 20260904042504 | 66 | 145 | 0.0 | 0.0 | 0.00 | 0.00 | 0.00 | 91 | 1013.1 |
| 20260904042023 | 66 | 145 | 0.0 | 0.0 | 0.00 | 0.00 | 0.00 | 91 | 1012.9 |
| 20260904041548 | 67 | 126 | 0.0 | 0.0 | 0.00 | 0.00 | 0.00 | 91 | 1012.9 |
| 20260904041108 | 67 | 126 | 0.0 | 0.0 | 0.00 | 0.00 | 0.00 | 91 | 1012.9 |
| 20260904040625 | 67 | 126 | 0.0 | 0.0 | 0.00 | 0.00 | 0.00 | 91 | 1012.8 |
| 20260904040003 | 67 | 144 | 0.0 | 0.0 | 0.00 | 0.00 | 0.00 | 90 | 1013.0 |
| 20260904035553 | 67 | 144 | 0.0 | 0.0 | 0.00 | 0.00 | 0.00 | 90 | 1012.8 |
| 20260904035112 | 67 | 86 | 0.0 | 0.0 | 0.00 | 0.00 | 0.00 | 89 | 1012.8 |
| 20260904034501 | 68 | 85 | 0.0 | 0.0 | 0.00 | 0.00 | 0.00 | 88 | 1012.9 |
| 20260904034017 | 67 | 85 | 0.0 | 0.0 | 0.00 | 0.00 | 0.00 | 89 | 1012.9 |
| 20260904033537 | 67 | 85 | 0.0 | 0.0 | 0.00 | 0.00 | 0.00 | 89 | 1012.8 |
| 20260904033053 | 67 | 94 | 0.0 | 0.0 | 0.00 | 0.00 | 0.00 | 89 | 1012.9 |
| 20260904032604 | 67 | 93 | 0.0 | 0.0 | 0.00 | 0.00 | 0.00 | 89 | 1012.9 |
| 20260904032126 | 67 | 93 | 0.0 | 0.0 | 0.00 | 0.00 | 0.00 | 89 | 1012.9 |
| 20260904031544 | 67 | 111 | 0.0 | 0.0 | 0.00 | 0.00 | 0.00 | 89 | 1013.0 |
| 20260904031103 | 67 | 110 | 0.0 | 0.0 | 0.00 | 0.00 | 0.00 | 89 | 1013.1 |
| 20260904030623 | 67 | 110 | 0.0 | 0.0 | 0.00 | 0.00 | 0.00 | 89 | 1013.1 |
| 20260904030003 | 67 | 110 | 0.0 | 0.0 | 0.00 | 0.00 | 0.00 | 89 | 1013.1 |
| 20260904025519 | 67 | 111 | 0.0 | 0.0 | 0.00 | 0.05 | 0.00 | 89 | 1013.1 |
| 20260904025037 | 67 | 110 | 0.0 | 0.0 | 0.00 | 0.05 | 0.00 | 89 | 1013.2 |
| 20260904024550 | 67 | 115 | 0.0 | 0.0 | 0.00 | 0.05 | 0.00 | 88 | 1013.1 |
| 20260904024105 | 67 | 115 | 0.0 | 0.0 | 0.00 | 0.05 | 0.00 | 88 | 1013.1 |
| 20260904023621 | 67 | 116 | 0.0 | 0.0 | 0.00 | 0.05 | 0.00 | 88 | 1013.3 |
| 20260904023030 | 67 | 121 | 0.0 | 0.0 | 0.00 | 0.05 | 0.00 | 89 | 1013.3 |
| 20260904022551 | 67 | 147 | 0.0 | 0.0 | 0.00 | 0.05 | 0.00 | 89 | 1013.1 |
| 20260904022109 | 67 | 147 | 0.0 | 0.0 | 0.00 | 0.05 | 0.00 | 89 | 1013.1 |
| 20260904021633 | 67 | 115 | 0.0 | 0.0 | 0.00 | 0.05 | 0.00 | 88 | 1013.1 |
| 20260904021009 | 68 | 115 | 0.0 | 0.0 | 0.00 | 0.05 | 0.00 | 88 | 1013.3 |
| 20260904020525 | 68 | 126 | 0.0 | 0.0 | 0.00 | 0.05 | 0.00 | 88 | 1013.3 |
| 20260904020058 | 68 | 126 | 0.0 | 0.0 | 0.00 | 0.05 | 0.00 | 87 | 1013.3 |
| 20260904015613 | 68 | 101 | 0.0 | 0.0 | 0.00 | 0.20 | 0.00 | 87 | 1013.4 |
| 20260904015131 | 68 | 143 | 0.0 | 0.0 | 0.00 | 0.20 | 0.00 | 86 | 1013.4 |
| 20260904014650 | 69 | 144 | 0.0 | 0.0 | 0.00 | 0.20 | 0.00 | 86 | 1013.4 |
| 20260904014014 | 69 | 145 | 0.0 | 0.0 | 0.00 | 0.20 | 0.00 | 84 | 1013.4 |
| 20260904013535 | 69 | 146 | 0.0 | 0.0 | 0.00 | 0.20 | 0.00 | 84 | 1013.2 |
| 20260904013056 | 69 | 133 | 0.0 | 0.0 | 0.00 | 0.20 | 0.00 | 85 | 1013.0 |
| 20260904012611 | 69 | 110 | 0.0 | 0.0 | 0.00 | 0.20 | 0.00 | 85 | 1013.2 |
| 20260904012127 | 69 | 110 | 0.0 | 0.0 | 0.00 | 0.20 | 0.00 | 86 | 1013.3 |
| 20260904011536 | 69 | 113 | 0.0 | 0.0 | 0.00 | 0.20 | 0.00 | 86 | 1013.2 |
| 20260904011057 | 69 | 113 | 0.0 | 0.0 | 0.00 | 0.20 | 0.00 | 86 | 1013.3 |
| 20260904010611 | 70 | 113 | 0.0 | 0.0 | 0.00 | 0.20 | 0.00 | 85 | 1013.3 |
| 20260904010140 | 70 | 114 | 0.0 | 0.0 | 0.00 | 0.20 | 0.00 | 85 | 1013.3 |
| 20260904005637 | 70 | 98 | 0.0 | 0.0 | 0.00 | 0.21 | 0.00 | 84 | 1013.3 |
| 20260904005014 | 70 | 101 | 0.0 | 0.0 | 0.00 | 0.21 | 0.00 | 84 | 1013.4 |
| 20260904004553 | 70 | 77 | 0.0 | 0.0 | 0.00 | 0.21 | 0.00 | 85 | 1013.5 |
| 20260904004116 | 70 | 77 | 0.0 | 0.0 | 0.00 | 0.21 | 0.00 | 84 | 1013.4 |
| 20260904003506 | 70 | 77 | 0.0 | 0.0 | 0.00 | 0.21 | 0.00 | 84 | 1013.3 |
| 20260904003035 | 70 | 77 | 0.0 | 0.0 | 0.00 | 0.21 | 0.00 | 85 | 1013.3 |
| 20260904002557 | 70 | 77 | 0.0 | 0.0 | 0.00 | 0.21 | 0.00 | 85 | 1013.1 |
| 20260904002113 | 70 | 22 | 0.0 | 0.0 | 0.00 | 0.21 | 0.00 | 84 | 1013.2 |
| 20260904001637 | 70 | 22 | 0.0 | 0.0 | 0.00 | 0.21 | 0.00 | 84 | 1013.1 |
| 20260904001017 | 71 | 22 | 0.0 | 0.0 | 0.00 | 0.21 | 0.00 | 85 | 1013.1 |
| 20260904000532 | 71 | 22 | 0.0 | 0.0 | 0.00 | 0.21 | 0.00 | 85 | 1013.1 |
| 20260904000126 | 71 | 22 | 0.0 | 0.0 | 0.00 | 0.21 | 0.00 | 84 | 1013.0 |
| 20260903235604 | 72 | 22 | 0.0 | 0.0 | 0.00 | 0.21 | 0.00 | 84 | 1012.9 |
| 20260903235120 | 72 | 22 | 0.0 | 0.0 | 0.00 | 0.21 | 0.00 | 82 | 1013.0 |
| 20260903234517 | 72 | 22 | 0.0 | 0.0 | 0.00 | 0.21 | 0.00 | 82 | 1013.0 |
| 20260903234037 | 72 | 22 | 0.0 | 0.0 | 0.00 | 0.21 | 0.00 | 82 | 1013.0 |
| 20260903233554 | 72 | 22 | 0.0 | 0.0 | 0.00 | 0.21 | 0.00 | 82 | 1013.1 |
| 20260903233058 | 72 | 27 | 0.0 | 0.0 | 0.00 | 0.21 | 0.00 | 84 | 1013.0 |
| 20260903232621 | 72 | 27 | 0.0 | 0.0 | 0.00 | 0.21 | 0.00 | 82 | 1012.9 |
| 20260903232133 | 72 | 27 | 0.0 | 0.0 | 0.00 | 0.21 | 0.00 | 83 | 1012.8 |
| 20260903231653 | 73 | 27 | 0.0 | 0.0 | 0.00 | 0.21 | 0.00 | 83 | 1012.8 |
| 20260903231014 | 73 | 84 | 0.0 | 0.0 | 0.00 | 0.21 | 0.00 | 81 | 1012.6 |
| 20260903230535 | 73 | 84 | 0.0 | 0.0 | 0.00 | 0.21 | 0.00 | 81 | 1012.7 |
| 20260903230055 | 73 | 84 | 0.0 | 0.0 | 0.00 | 0.21 | 0.00 | 82 | 1012.8 |
| 20260903225603 | 73 | 84 | 0.0 | 0.0 | 0.00 | 0.21 | 0.00 | 82 | 1012.7 |
| 20260903225116 | 74 | 84 | 0.0 | 0.0 | 0.00 | 0.21 | 0.00 | 81 | 1012.6 |
| 20260903224545 | 74 | 84 | 0.0 | 0.0 | 0.00 | 0.21 | 0.00 | 79 | 1012.5 |
| 20260903224115 | 74 | 24 | 0.0 | 0.0 | 0.00 | 0.21 | 0.00 | 78 | 1012.5 |
| 20260903223636 | 75 | 25 | 0.0 | 0.0 | 0.00 | 0.21 | 0.00 | 78 | 1012.5 |
| 20260903223006 | 75 | 38 | 0.0 | 0.0 | 0.00 | 0.21 | 0.00 | 77 | 1012.4 |
| 20260903222519 | 76 | 39 | 0.0 | 0.0 | 0.00 | 0.21 | 0.00 | 76 | 1012.4 |
| 20260903222039 | 76 | 53 | 0.0 | 0.0 | 0.00 | 0.21 | 0.00 | 75 | 1012.6 |
| 20260903221559 | 76 | 37 | 0.0 | 0.0 | 0.00 | 0.21 | 0.00 | 75 | 1012.5 |
| 20260903221118 | 77 | 356 | 0.0 | 0.0 | 0.00 | 0.21 | 0.00 | 75 | 1012.5 |
| 20260903220505 | 77 | 34 | 0.0 | 0.0 | 0.00 | 0.21 | 0.00 | 74 | 1012.5 |
| 20260903220035 | 77 | 31 | 0.0 | 0.0 | 0.00 | 0.21 | 0.00 | 75 | 1012.6 |
| 20260903215558 | 77 | 13 | 0.0 | 0.0 | 0.00 | 0.21 | 0.00 | 73 | 1012.6 |
| 20260903215112 | 77 | 324 | 0.0 | 0.0 | 0.00 | 0.21 | 0.00 | 72 | 1012.5 |
| 20260903214635 | 77 | 335 | 0.0 | 0.0 | 0.00 | 0.21 | 0.00 | 72 | 1012.5 |
| 20260903214011 | 77 | 21 | 0.0 | 0.0 | 0.00 | 0.21 | 0.00 | 70 | 1012.4 |
| 20260903213524 | 78 | 335 | 0.0 | 0.0 | 0.00 | 0.21 | 0.00 | 70 | 1012.5 |
| 20260903213048 | 78 | 37 | 0.0 | 0.0 | 0.00 | 0.21 | 0.00 | 69 | 1012.4 |
| 20260903212602 | 78 | 283 | 0.0 | 0.0 | 0.00 | 0.21 | 0.00 | 68 | 1012.4 |
| 20260903212113 | 78 | 50 | 0.0 | 0.0 | 0.00 | 0.21 | 0.00 | 68 | 1012.4 |
| 20260903211540 | 78 | 286 | 0.0 | 0.0 | 0.00 | 0.21 | 0.00 | 69 | 1012.5 |
| 20260903211055 | 78 | 311 | 0.0 | 0.0 | 0.00 | 0.21 | 0.00 | 68 | 1012.6 |
| 20260903210612 | 78 | 285 | 0.0 | 0.0 | 0.00 | 0.21 | 0.00 | 69 | 1012.6 |
| 20260903210138 | 78 | 280 | 0.0 | 0.0 | 0.00 | 0.21 | 0.00 | 68 | 1012.7 |
| 20260903205522 | 78 | 327 | 0.0 | 0.0 | 0.00 | 0.21 | 0.00 | 71 | 1012.7 |
| 20260903205039 | 77 | 292 | 0.0 | 0.0 | 0.00 | 0.21 | 0.00 | 69 | 1012.8 |
| 20260903204555 | 77 | 304 | 0.0 | 0.0 | 0.00 | 0.21 | 0.00 | 71 | 1012.8 |
| 20260903204117 | 77 | 262 | 0.0 | 0.0 | 0.00 | 0.21 | 0.00 | 71 | 1012.9 |
| 20260903203502 | 77 | 70 | 0.0 | 0.0 | 0.00 | 0.21 | 0.00 | 70 | 1012.9 |
| 20260903203045 | 77 | 292 | 0.0 | 0.0 | 0.00 | 0.21 | 0.00 | 70 | 1012.9 |
| 20260903202604 | 78 | 304 | 0.0 | 0.0 | 0.00 | 0.21 | 0.00 | 70 | 1012.9 |
| 20260903202121 | 78 | 294 | 0.0 | 0.0 | 0.00 | 0.21 | 0.00 | 69 | 1012.8 |
| 20260903201641 | 78 | 5 | 0.0 | 0.0 | 0.00 | 0.21 | 0.00 | 72 | 1012.8 |
| 20260903201006 | 78 | 312 | 0.0 | 0.0 | 0.00 | 0.21 | 0.00 | 68 | 1012.8 |
| 20260903200530 | 79 | 300 | 0.0 | 4.0 | 0.00 | 0.21 | 0.00 | 69 | 1012.9 |
| 20260903200043 | 78 | 262 | 0.0 | 5.0 | 0.00 | 0.21 | 0.00 | 69 | 1012.9 |
| 20260903195119 | 78 | 304 | 0.0 | 2.0 | 0.00 | 0.21 | 0.00 | 66 | 1012.9 |
| 20260903194547 | 79 | 293 | 0.0 | 6.0 | 0.00 | 0.21 | 0.00 | 67 | 1013.0 |
| 20260903194055 | 78 | 294 | 0.0 | 6.0 | 0.00 | 0.21 | 0.00 | 68 | 1013.0 |
| 20260903193614 | 78 | 266 | 0.0 | 8.0 | 0.00 | 0.21 | 0.00 | 67 | 1013.1 |
| 20260903193138 | 78 | 289 | 1.0 | 8.0 | 0.00 | 0.21 | 0.00 | 66 | 1013.2 |
| 20260903192620 | 78 | 53 | 0.0 | 4.0 | 0.00 | 0.21 | 0.00 | 66 | 1013.1 |
| 20260903192132 | 78 | 296 | 0.0 | 7.0 | 0.00 | 0.21 | 0.00 | 67 | 1013.2 |
| 20260903191650 | 77 | 298 | 1.0 | 7.0 | 0.00 | 0.21 | 0.00 | 67 | 1013.3 |
| 20260903191012 | 77 | 287 | 0.0 | 4.0 | 0.00 | 0.21 | 0.00 | 68 | 1013.3 |
| 20260903190535 | 77 | 317 | 0.0 | 4.0 | 0.00 | 0.21 | 0.00 | 66 | 1013.4 |
| 20260903190101 | 77 | 314 | 0.0 | 5.0 | 0.00 | 0.21 | 0.00 | 66 | 1013.3 |
| 20260903185610 | 78 | 302 | 0.0 | 5.0 | 0.00 | 0.21 | 0.00 | 65 | 1013.4 |
| 20260903185124 | 78 | 249 | 0.0 | 6.0 | 0.00 | 0.21 | 0.00 | 67 | 1013.4 |
| 20260903184643 | 77 | 252 | 0.0 | 6.0 | 0.00 | 0.21 | 0.00 | 68 | 1013.5 |
| 20260903184133 | 77 | 265 | 0.0 | 4.0 | 0.00 | 0.21 | 0.00 | 69 | 1013.5 |
| 20260903183526 | 77 | 317 | 0.0 | 11.0 | 0.00 | 0.21 | 0.00 | 67 | 1013.5 |
| 20260903183042 | 77 | 264 | 0.0 | 7.0 | 0.00 | 0.21 | 0.00 | 68 | 1013.3 |
| 20260903182559 | 77 | 316 | 0.0 | 7.0 | 0.00 | 0.21 | 0.00 | 67 | 1013.2 |
| 20260903182117 | 77 | 272 | 0.0 | 0.0 | 0.00 | 0.21 | 0.00 | 70 | 1013.3 |
| 20260903181544 | 77 | 273 | 0.0 | 6.0 | 0.00 | 0.21 | 0.00 | 70 | 1013.5 |
| 20260903181104 | 77 | 249 | 0.0 | 9.0 | 0.00 | 0.21 | 0.00 | 69 | 1013.5 |
| 20260903180618 | 77 | 294 | 0.0 | 0.0 | 0.00 | 0.21 | 0.00 | 70 | 1013.4 |
| 20260903180044 | 77 | 42 | 0.0 | 0.0 | 0.00 | 0.21 | 0.00 | 70 | 1013.5 |
| 20260903175554 | 76 | 3 | 0.0 | 6.0 | 0.00 | 0.21 | 0.00 | 71 | 1013.6 |
| 20260903175114 | 76 | 306 | 0.0 | 6.0 | 0.00 | 0.21 | 0.00 | 69 | 1013.7 |
| 20260903174639 | 76 | 252 | 0.0 | 7.0 | 0.00 | 0.21 | 0.00 | 72 | 1013.7 |
| 20260903174017 | 76 | 269 | 2.0 | 8.0 | 0.00 | 0.21 | 0.00 | 69 | 1013.7 |
| 20260903173534 | 76 | 171 | 0.0 | 6.0 | 0.00 | 0.21 | 0.00 | 77 | 1013.6 |
| 20260903173052 | 75 | 283 | 0.0 | 6.0 | 0.00 | 0.21 | 0.00 | 77 | 1013.7 |
| 20260903172609 | 75 | 201 | 0.0 | 4.0 | 0.00 | 0.21 | 0.00 | 79 | 1013.6 |
| 20260903172125 | 74 | 254 | 0.0 | 6.0 | 0.00 | 0.21 | 0.00 | 79 | 1013.7 |
| 20260903171643 | 74 | 259 | 0.0 | 6.0 | 0.00 | 0.21 | 0.00 | 80 | 1013.8 |
| 20260903171010 | 74 | 297 | 0.0 | 0.0 | 0.00 | 0.21 | 0.00 | 79 | 1013.8 |
| 20260903170531 | 74 | 261 | 0.0 | 0.0 | 0.00 | 0.21 | 0.00 | 80 | 1013.8 |
| 20260903170055 | 75 | 310 | 0.0 | 0.0 | 0.00 | 0.21 | 0.00 | 81 | 1013.8 |
| 20260903165602 | 75 | 241 | 0.0 | 0.0 | 0.00 | 0.21 | 0.00 | 82 | 1013.9 |
| 20260903165118 | 74 | 279 | 0.0 | 6.0 | 0.00 | 0.21 | 0.00 | 81 | 1014.0 |
| 20260903164538 | 74 | 272 | 0.0 | 5.0 | 0.00 | 0.21 | 0.00 | 81 | 1014.0 |
| 20260903164101 | 74 | 272 | 0.0 | 0.0 | 0.00 | 0.21 | 0.00 | 81 | 1014.1 |
| 20260903163617 | 74 | 300 | 0.0 | 5.0 | 0.00 | 0.21 | 0.00 | 83 | 1014.1 |
| 20260903163034 | 73 | 195 | 0.0 | 5.0 | 0.00 | 0.21 | 0.00 | 85 | 1014.1 |
| 20260903162548 | 73 | 292 | 0.0 | 5.0 | 0.00 | 0.21 | 0.00 | 86 | 1014.1 |
| 20260903162109 | 73 | 311 | 0.0 | 8.0 | 0.00 | 0.21 | 0.00 | 85 | 1014.2 |
| 20260903161634 | 73 | 297 | 0.0 | 8.0 | 0.00 | 0.21 | 0.00 | 86 | 1014.2 |
| 20260903161008 | 73 | 280 | 0.0 | 7.0 | 0.00 | 0.21 | 0.00 | 86 | 1014.1 |
| 20260903160529 | 73 | 233 | 0.0 | 1.0 | 0.00 | 0.21 | 0.00 | 86 | 1014.2 |
| 20260903160045 | 73 | 165 | 0.0 | 4.0 | 0.00 | 0.21 | 0.00 | 88 | 1014.3 |
| 20260903155606 | 72 | 264 | 0.0 | 4.0 | 0.00 | 0.45 | 0.00 | 89 | 1014.3 |
| 20260903155125 | 72 | 244 | 0.0 | 3.0 | 0.00 | 0.45 | 0.00 | 89 | 1014.3 |
| 20260903154544 | 71 | 261 | 0.0 | 3.0 | 0.00 | 0.45 | 0.00 | 90 | 1014.3 |
| 20260903154101 | 71 | 313 | 0.0 | 3.0 | 0.00 | 0.45 | 0.00 | 90 | 1014.3 |
| 20260903153620 | 71 | 313 | 0.0 | 2.0 | 0.00 | 0.45 | 0.00 | 91 | 1014.3 |
| 20260903153006 | 71 | 226 | 0.0 | 2.0 | 0.00 | 0.45 | 0.00 | 91 | 1014.4 |
| 20260903152529 | 71 | 144 | 0.0 | 4.0 | 0.00 | 0.45 | 0.00 | 92 | 1014.5 |
| 20260903152049 | 70 | 258 | 0.0 | 4.0 | 0.00 | 0.45 | 0.00 | 92 | 1014.5 |